Change the Weather History Date:

Tuesday, April 8, 2014

  Actual Average (KLNS) Record (KLNS)
Temperature  
Mean Temperature 53 °F -  
Max Temperature 60 °F 60 °F 84 °F (1991)
Min Temperature 46 °F 39 °F 22 °F (1982)
Degree Days  
Heating Degree Days 12    
Growing Degree Days 3 (Base 50)    
Moisture  
Dew Point 45 °F    
Average Humidity 74    
Maximum Humidity 100    
Minimum Humidity 42    
Precipitation  
Precipitation 0.01 in - - ()
Sea Level Pressure  
Sea Level Pressure 29.57 in    
Wind  
Wind Speed 10 mph (West)    
Max Wind Speed 24 mph    
Max Gust Speed 32 mph    
Visibility 7 miles    
Events Fog , Rain    
Averages and records for this station are not official NWS values.
T = Trace of Precipitation, MM = Missing Value Source: NWS Daily Summary

Daily Weather History Graph

Daily Weather History Graph

Search for Another Location

Airport or City:

Trip Planner

Search our weather history database for the weather conditions in past years. The results will help you decide how hot, cold, wet, or windy it might be!

Date:

Astronomy

Apr. 08, 2014 Rise Set
Actual Time 6:36 AM EDT 7:34 PM EDT
Civil Twilight 6:08 AM EDT 8:02 PM EDT
Nautical Twilight 5:35 AM EDT 8:35 PM EDT
Astronomical Twilight 5:01 AM EDT 9:09 PM EDT
Moon 1:26 PM EDT (4/8) 2:47 AM EDT (4/8)
Length of Visible Light 13h 53m
Length of Day
12h 58m
Waxing Gibbous, 62% of the Moon is Illuminated
Apr 8
Waxing Gibbous
Apr 15
Full
Apr 22
Last Quarter
Apr 29
New
May 6
First Quarter

Hourly Weather History & Observations

Time (EDT) Temp. Windchill Dew Point Humidity Pressure Visibility Wind Dir Wind Speed Gust Speed Precip Events Conditions
12:15 AM 48.2 °F - 48.2 °F 100% 29.64 in 0.2 mi ESE 6.9 mph - N/A Fog Fog
12:35 AM 48.2 °F - 48.2 °F 100% 29.63 in 0.2 mi ESE 6.9 mph - N/A Fog Fog
12:55 AM 50.0 °F - 50.0 °F 100% 29.62 in 0.2 mi SE 3.5 mph - N/A Fog Fog
1:15 AM 51.8 °F - 51.8 °F 100% 29.61 in 0.2 mi SSE 3.5 mph - N/A Fog Fog
1:35 AM 51.8 °F - 51.8 °F 100% 29.60 in 0.2 mi South 4.6 mph - N/A   Light Drizzle
2:15 AM 53.6 °F - 53.6 °F 100% 29.58 in 0.2 mi South 6.9 mph - N/A Fog Fog
2:35 AM 53.6 °F - 53.6 °F 100% 29.57 in 1.8 mi South 5.8 mph - N/A Rain Light Rain
2:55 AM 53.6 °F - 53.6 °F 100% 29.55 in 2.0 mi South 9.2 mph - N/A Rain Light Rain
3:15 AM 53.6 °F - 53.6 °F 100% 29.55 in 2.5 mi South 5.8 mph - N/A Rain Light Rain
3:35 AM 53.6 °F - 53.6 °F 100% 29.54 in 4.0 mi SSW 5.8 mph - N/A Rain Light Rain
3:55 AM 53.6 °F - 53.6 °F 100% 29.53 in 3.0 mi SSW 5.8 mph - 0.01 in Rain Light Rain
4:15 AM 53.6 °F - 53.6 °F 100% 29.52 in 5.0 mi SSW 5.8 mph - N/A   Overcast
4:35 AM 53.6 °F - 53.6 °F 100% 29.51 in 5.0 mi South 5.8 mph - N/A Rain Light Rain
4:55 AM 55.4 °F - 55.4 °F 100% 29.51 in 6.0 mi SSW 6.9 mph - N/A Rain Light Rain
5:15 AM 55.4 °F - 55.4 °F 100% 29.50 in 3.0 mi SSW 9.2 mph 18.4 mph N/A   Overcast
5:35 AM 53.6 °F - 53.6 °F 100% 29.49 in 4.0 mi SSW 8.1 mph - N/A   Overcast
5:55 AM 55.4 °F - 55.4 °F 100% 29.48 in 5.0 mi SSW 6.9 mph - N/A   Overcast
6:15 AM 55.4 °F - 55.4 °F 100% 29.48 in 4.0 mi SW 6.9 mph - N/A   Overcast
6:35 AM 55.4 °F - 55.4 °F 100% 29.47 in 4.0 mi SSW 6.9 mph - N/A   Overcast
6:55 AM 55.4 °F - 55.4 °F 100% 29.48 in 1.8 mi SW 8.1 mph - N/A   Overcast
7:15 AM 55.4 °F - 55.4 °F 100% 29.48 in 1.8 mi West 6.9 mph - N/A   Overcast
7:35 AM 53.6 °F - 53.6 °F 100% 29.50 in 1.5 mi SW 8.1 mph - N/A   Overcast
7:55 AM 53.6 °F - 53.6 °F 100% 29.50 in 0.8 mi WSW 8.1 mph - N/A   Light Drizzle
8:15 AM 53.6 °F - 53.6 °F 100% 29.50 in 0.8 mi WSW 5.8 mph - N/A   Overcast
8:35 AM 53.6 °F - 53.6 °F 100% 29.49 in 1.8 mi West 5.8 mph - N/A   Overcast
8:55 AM 53.6 °F - 53.6 °F 100% 29.49 in 6.0 mi West 5.8 mph - N/A   Overcast
9:15 AM 55.4 °F - 55.4 °F 100% 29.50 in 9.0 mi WSW 4.6 mph - N/A   Overcast
9:35 AM 55.4 °F - 55.4 °F 100% 29.50 in 10.0 mi WSW 6.9 mph - N/A   Overcast
9:55 AM 55.4 °F - 55.4 °F 100% 29.50 in 10.0 mi WSW 5.8 mph - N/A   Overcast
10:15 AM 57.2 °F - 55.4 °F 94% 29.51 in 10.0 mi West 11.5 mph 18.4 mph N/A   Mostly Cloudy
10:35 AM 57.2 °F - 55.4 °F 94% 29.51 in 10.0 mi West 10.4 mph 18.4 mph N/A   Scattered Clouds
10:55 AM 59.0 °F - 51.8 °F 77% 29.51 in 10.0 mi West 12.7 mph 20.7 mph N/A   Mostly Cloudy
11:15 AM 59.0 °F - 48.2 °F 67% 29.51 in 10.0 mi West 17.3 mph 26.5 mph N/A   Scattered Clouds
11:35 AM 59.0 °F - 46.4 °F 63% 29.51 in 10.0 mi West 16.1 mph 26.5 mph N/A   Partly Cloudy
11:55 AM 60.8 °F - 44.6 °F 55% 29.51 in 10.0 mi WNW 23.0 mph 29.9 mph N/A   Partly Cloudy
12:15 PM 59.0 °F - 42.8 °F 55% 29.51 in 10.0 mi West 17.3 mph 27.6 mph N/A   Partly Cloudy
12:35 PM 60.8 °F - 39.2 °F 45% 29.52 in 10.0 mi WNW 24.2 mph 31.1 mph N/A   Scattered Clouds
12:55 PM 60.8 °F - 39.2 °F 45% 29.52 in 10.0 mi WNW 24.2 mph 29.9 mph N/A   Scattered Clouds
1:15 PM 59.0 °F - 39.2 °F 48% 29.53 in 10.0 mi West 19.6 mph 27.6 mph N/A   Scattered Clouds
1:35 PM 60.8 °F - 39.2 °F 45% 29.53 in 10.0 mi WNW 23.0 mph 32.2 mph N/A   Mostly Cloudy
1:55 PM 60.8 °F - 41.0 °F 48% 29.54 in 10.0 mi WNW 19.6 mph 28.8 mph N/A   Mostly Cloudy
2:15 PM 59.0 °F - 39.2 °F 48% 29.55 in 10.0 mi WNW 21.9 mph 27.6 mph N/A   Mostly Cloudy
2:35 PM 60.8 °F - 39.2 °F 45% 29.55 in 10.0 mi WNW 23.0 mph 29.9 mph N/A   Scattered Clouds
2:55 PM 60.8 °F - 39.2 °F 45% 29.56 in 10.0 mi WNW 21.9 mph 32.2 mph N/A   Clear
3:15 PM 60.8 °F - 37.4 °F 42% 29.56 in 10.0 mi WNW 20.7 mph 31.1 mph N/A   Partly Cloudy
3:35 PM 59.0 °F - 37.4 °F 45% 29.56 in 10.0 mi NW 18.4 mph 26.5 mph N/A   Mostly Cloudy
3:55 PM 57.2 °F - 37.4 °F 48% 29.57 in 10.0 mi NW 20.7 mph 26.5 mph N/A   Scattered Clouds
4:15 PM 57.2 °F - 37.4 °F 48% 29.58 in 10.0 mi WNW 17.3 mph 21.9 mph N/A   Clear
4:35 PM 59.0 °F - 37.4 °F 45% 29.58 in 10.0 mi NW 16.1 mph 25.3 mph N/A   Partly Cloudy
4:55 PM 59.0 °F - 37.4 °F 45% 29.58 in 10.0 mi NW 20.7 mph 26.5 mph N/A   Partly Cloudy
5:15 PM 59.0 °F - 37.4 °F 45% 29.59 in 10.0 mi WNW 19.6 mph 27.6 mph N/A   Partly Cloudy
5:35 PM 57.2 °F - 35.6 °F 44% 29.59 in 10.0 mi NW 20.7 mph 29.9 mph N/A   Clear
5:55 PM 57.2 °F - 35.6 °F 44% 29.60 in 10.0 mi NW 20.7 mph 27.6 mph N/A   Clear
6:15 PM 55.4 °F - 35.6 °F 47% 29.61 in 10.0 mi WNW 20.7 mph 28.8 mph N/A   Clear
6:35 PM 55.4 °F - 35.6 °F 47% 29.62 in 10.0 mi WNW 13.8 mph - N/A   Partly Cloudy
6:55 PM 55.4 °F - 35.6 °F 47% 29.63 in 10.0 mi WNW 17.3 mph - N/A   Clear
7:15 PM 53.6 °F - 35.6 °F 51% 29.64 in 10.0 mi WNW 15.0 mph 19.6 mph N/A   Clear
7:35 PM 51.8 °F - 35.6 °F 54% 29.65 in 10.0 mi WNW 9.2 mph - N/A   Clear
7:55 PM 51.8 °F - 35.6 °F 54% 29.65 in 10.0 mi WNW 12.7 mph - N/A   Clear
8:15 PM 50.0 °F - 37.4 °F 62% 29.66 in 10.0 mi WNW 10.4 mph - N/A   Clear
8:35 PM 51.8 °F - 35.6 °F 54% 29.67 in 10.0 mi NW 11.5 mph - N/A   Clear
8:55 PM 50.0 °F - 37.4 °F 62% 29.68 in 10.0 mi NW 11.5 mph - N/A   Clear
9:15 PM 50.0 °F - 37.4 °F 62% 29.68 in 10.0 mi NW 10.4 mph - N/A   Clear
9:35 PM 48.2 °F - 35.6 °F 62% 29.69 in 10.0 mi NW 8.1 mph - N/A   Clear
9:55 PM 48.2 °F - 35.6 °F 62% 29.69 in 10.0 mi NW 5.8 mph - N/A   Clear
10:15 PM 46.4 °F 42.9 °F 35.6 °F 66% 29.68 in 10.0 mi NW 6.9 mph - N/A   Clear
10:35 PM 46.4 °F 43.5 °F 35.6 °F 66% 29.68 in 10.0 mi NNW 5.8 mph - N/A   Clear
10:55 PM 46.4 °F 45.2 °F 35.6 °F 66% 29.68 in 10.0 mi NNW 3.5 mph - N/A   Clear
11:15 PM 46.4 °F - 35.6 °F 66% 29.68 in 10.0 mi Calm Calm - N/A   Clear
11:35 PM 46.4 °F - 35.6 °F 66% 29.68 in 10.0 mi Calm Calm - N/A   Clear
11:55 PM 46.4 °F 45.2 °F 35.6 °F 66% 29.69 in 10.0 mi NW 3.5 mph - N/A   Clear